Location: Erbendorf
(49.8398°N, 12.0459°E)
Time: 15:32:37
(UTC+00:00)

Daily predictions for brighter satellites

Satellite Brightness Start Highest point End
(mag) Time Altitude Azimuth Time Altitude Azimuth Time Altitude Azimuth
SL-4 R/B 2.9 15:41:48 10° SSW 15:45:11 35° SE 15:48:48 10° E
Tsikada Rocket 4.3 15:39:51 10° SSW 15:46:17 78° W 15:52:43 10° N
NOAA 6 4.1 15:42:20 10° SSE 15:47:28 89° ENE 15:52:38 10° NNW
CZ-4B R/B 3.2 15:42:12 10° SSE 15:47:31 89° WSW 15:52:59 10° NNW
Cosmos 1869 Rocket 3.6 15:43:52 10° N 15:48:19 85° E 15:52:45 10° S
BREEZE-M R/B 3.6 15:40:48 10° WSW 15:48:21 73° SSE 15:52:02 10° E
FENGYUN 3A 4.0 15:43:19 10° S 15:48:45 75° WSW 15:54:12 10° NNW
Cosmos 2322 3.8 15:45:01 10° SSW 15:50:41 67° ESE 15:56:20 10° NNE
ISS -3.8 15:49:46 10° WNW 15:53:08 90° NNE 15:56:31 10° ESE
ATLAS 3B R/B 3.1 15:47:25 10° NW 15:54:05 69° SW 16:00:54 10° SSE
Cosmos 1782 2.8 15:51:44 10° S 15:55:42 76° E 15:59:42 10° NNE
Cosmos 1606 3.9 15:52:27 10° SSW 15:56:04 43° WNW 15:59:44 10° N
USA 267 3.6 15:50:13 10° SE 15:56:46 75° SW 16:03:20 10° WNW
Cosmos 2278 Rocket 2.4 15:51:39 10° NNW 15:57:09 47° NE 16:02:36 10° SE
Meteor 2-6 Rocket 4.5 15:52:21 10° SSE 15:57:27 45° E 16:02:37 10° NNE
NOSS 3-4 (A) 3.5 15:52:06 10° SSW 15:58:05 75° SE 16:04:32 10° NE
NOSS 3-4 (C) 3.5 15:52:12 10° SSW 15:58:11 75° SE 16:04:38 10° NE
COSMOS 2455 3.7 15:52:47 10° WSW 15:58:33 46° NW 16:04:23 10° NNE
Helios 1A Rocket 3.2 15:54:34 10° S 15:58:41 74° WSW 16:02:48 10° NNW
Cosmos 1666 4.3 15:57:11 10° NNE 15:59:16 14° ENE 16:01:21 10° E
Cosmos 1346 Rocket 2.8 15:55:20 10° NNW 15:59:19 89° ENE 16:03:19 10° S
Cosmos 1315 Rocket 2.8 15:58:05 10° S 16:02:02 67° E 16:06:04 10° NNE
CZ-4B R/B 2.6 16:01:11 10° N 16:04:34 44° WNW 16:07:53 10° SW
Cosmos 2360 Rocket 2.6 15:58:57 10° SW 16:04:35 65° WNW 16:10:16 10° NNE
SMAP 3.2 16:01:38 10° SE 16:06:09 53° ENE 16:10:42 10° N
Cosmos 2369 Rocket 4.0 16:07:54 10° N 16:10:27 13° NNE 16:12:39 11° NE
Cosmos 1400 Rocket 4.2 16:07:47 10° SW 16:11:39 40° WNW 16:15:30 10° N
Cosmos 1980 Rocket 4.3 16:08:29 10° WNW 16:11:59 16° NNW 16:15:30 10° N
Meteor 1-10 Rocket 4.3 16:07:12 10° S 16:12:34 54° E 16:18:02 10° NNE
ALOS 3.7 16:09:57 10° S 16:14:22 42° W 16:18:50 10° NNW
Okean O Rocket 2.7 16:11:41 10° S 16:15:54 49° W 16:20:09 10° NNW
Cosmos 304 Rocket 4.1 16:12:55 10° NNW 16:17:44 74° WSW 16:22:31 10° SSE
Cosmos 2333 Rocket 2.3 16:12:58 10° SSW 16:18:39 67° ESE 16:24:24 10° NNE
Cosmos 1862 Rocket 4.1 16:15:47 10° SSE 16:19:45 36° E 16:23:48 10° NNE
Cosmos 494 Rocket 4.5 16:17:08 10° SW 16:22:21 62° WNW 16:27:36 10° NNE
Meteor 1-11 Rocket 3.8 16:19:21 10° N 16:25:21 67° ENE 16:31:16 10° SSE
Cosmos 2237 Rocket 3.0 16:21:00 10° SSE 16:25:57 32° ESE 16:29:56 15° NE
Cosmos 292 Rocket 4.3 16:23:15 10° N 16:27:44 35° ENE 16:32:13 10° ESE
Cosmos 2279 Rocket 4.3 16:23:47 10° NNW 16:30:03 74° W 16:36:16 10° S
Cosmos 2322 Rocket 3.8 16:25:23 10° WSW 16:30:11 28° NW 16:35:02 10° NNE
Okean-O 2.8 16:25:57 10° SE 16:30:14 51° ENE 16:34:33 10° N
NOAA 12 4.1 16:26:33 10° SSE 16:31:46 60° ENE 16:36:59 10° N
Cosmos 1812 2.9 16:28:43 10° SSE 16:32:26 48° E 16:36:11 10° NNE
Meteor 1-27 Rocket 4.0 16:27:05 10° SSE 16:32:34 50° E 16:38:13 10° NNE
Cosmos 1707 Rocket 3.8 16:31:08 10° SSW 16:35:35 73° W 16:40:05 10° N
ATLAS 2AS CENTAUR R/B 3.4 16:28:03 10° WSW 16:36:01 64° NW 16:43:21 12° NE
RESURS DK-1 2.3 16:32:45 10° SSW 16:36:51 69° ESE 16:39:58 17° NE
SL-16 R/B 4.0 16:32:36 10° W 16:37:07 24° NW 16:41:42 10° NNE
STARLINK-67 2.7 16:34:56 10° W 16:37:41 60° NNW 16:38:49 30° NE
Exosat Rocket 3.7 16:33:17 10° S 16:38:27 52° ESE 16:42:27 15° NE
BREEZE-M DEB (TANK) 4.4 16:37:51 10° W 16:40:09 21° SW 16:41:58 10° SSE
Cosmos 2219 Rocket 2.2 16:35:51 10° SSW 16:41:29 88° WNW 16:46:56 11° NNE
CORIOLIS 4.2 16:36:09 10° SSE 16:41:36 90° SSE 16:47:06 10° NNW
AQUARIUS 4.3 16:38:15 10° SSE 16:42:44 80° WSW 16:47:17 10° NNW
SeaSat 1 3.8 16:48:20 19° NE 16:48:44 19° NE 16:52:11 10° N
Cosmos 1500 3.3 16:46:51 10° NNW 16:50:38 75° W 16:54:21 10° S
Shenzhou-11 Module 4.0 16:49:06 10° SW 16:51:09 19° S 16:52:19 15° SSE
Cosmos 1908 Rocket 3.6 16:48:08 10° N 16:52:29 52° ENE 16:56:45 10° SSE
YAOGAN 3 4.5 16:48:24 10° SSE 16:52:46 82° ENE 16:57:09 10° NNW
Nadezhda 4 Rocket 4.0 16:46:31 10° S 16:52:48 72° E 16:59:07 10° NNE
STARLINK-46 2.5 16:52:25 10° SW 16:55:04 65° SSE 16:55:24 56° ESE
COSMO-SKYMED 1 3.1 16:53:11 24° NE 16:55:07 37° E 16:59:09 10° SSE
Cosmos 1980 3.8 16:50:49 10° S 16:56:18 55° ESE 16:59:58 21° NE
Cosmos 1943 Rocket 3.3 16:52:53 10° NNW 16:57:19 23° NE 16:57:51 22° NE
Cosmos 2297 3.9 16:53:08 10° NNW 16:58:39 46° NE 17:03:20 14° ESE
Cosmos 2251 Rocket 3.4 16:53:54 10° SSW 16:59:11 73° ESE 17:03:18 17° NNE
YAOGAN 6 2.6 16:55:44 10° SSE 16:59:12 54° ENE 17:02:43 10° N
Cosmos 1536 2.7 16:55:40 10° N 16:59:44 87° E 17:03:44 10° S
H-2A R/B 3.8 16:58:46 10° S 17:02:19 44° W 17:05:53 10° NNW
USA 215 3.4 16:59:38 22° NE 17:04:03 65° NNW 17:10:31 10° WSW
Cosmos 1441 Rocket 3.5 17:00:30 10° N 17:04:11 42° ENE 17:05:55 26° SE
CSL-04 Rocket 3.7 17:00:23 10° SE 17:05:27 50° ENE 17:10:34 10° N
YAOGAN 1 2.8 17:01:38 10° SE 17:05:45 45° ENE 17:09:54 10° N
Cosmos 1263 4.5 17:04:03 10° S 17:06:36 46° SE 17:06:36 46° SE
CZ-4 R/B 1.2 17:07:20 10° SSE 17:11:11 61° ENE 17:15:01 10° N
COSMOS 2428 3.2 17:05:43 10° SW 17:11:18 59° NW 17:16:06 15° NNE
Cosmos 2026 Rocket 4.0 17:09:33 10° SSE 17:15:21 50° E 17:21:10 10° NNE
Lacrosse 5 rocket 1.2 17:11:22 10° SW 17:15:37 81° SSE 17:16:37 51° ENE
Aureole 1 Rocket 4.1 17:15:22 10° S 17:16:23 18° SSE 17:16:23 18° SSE
Envisat 3.3 17:13:08 10° S 17:18:12 69° WSW 17:23:18 10° NNW
CSL-04 Debris 4.1 17:13:40 10° SSE 17:19:04 65° ENE 17:24:28 10° N
Okean 1-7 3.2 17:15:06 10° SSE 17:19:11 46° E 17:19:11 46° E
SKYMED 3 4.5 17:17:36 34° NNE 17:19:22 64° ESE 17:23:40 10° S
SL-4 R/B 1.8 17:20:47 10° WSW 17:24:36 81° NNW 17:25:06 66° NE
Cosmos 407 Rocket 4.3 17:23:54 10° SSE 17:27:37 33° SE 17:27:37 33° SE
Genesis I 3.0 17:25:23 10° NW 17:29:11 72° NNE 17:29:11 72° NNE
Cosmos 1867 3.8 17:24:02 10° NNW 17:29:20 48° NE 17:30:02 45° ENE
ISS -1.7 17:26:48 10° W 17:29:36 25° SW 17:31:04 18° S
FengYun 1-2 T 4.4 17:25:26 10° S 17:30:55 75° WSW 17:36:27 10° NNW
Cosmos 1666 3.3 17:31:34 10° NNW 17:35:14 55° W 17:38:54 10° S
NOSS 3-1 (C) 4.4 17:31:01 10° NW 17:37:36 41° NNE 17:39:18 37° ENE
Sich 1 Rocket 4.2 17:34:44 10° N 17:37:44 41° N 17:37:44 41° N
NOAA 11 4.0 17:34:07 10° SSE 17:39:32 71° ENE 17:45:01 10° N
Cosmos 1627 Rocket 4.3 17:34:13 10° S 17:40:19 79° E 17:46:29 10° NNE
Cosmos 2278 Rocket 3.8 17:36:01 10° NW 17:41:06 35° WSW 17:46:09 10° S
SKYMED 2 3.6 17:41:52 40° N 17:43:23 76° WNW 17:47:42 10° SSW
USA 229 DEB 4.2 17:38:32 10° NW 17:45:16 43° NNE 17:46:22 40° NE
USA 229 4.2 17:38:38 10° NW 17:45:21 43° NNE 17:46:26 40° NE
Cosmos 2344 4.4 17:36:51 10° NW 17:45:27 51° NNE 17:49:33 37° E
Cosmos 1782 Rocket 3.5 17:42:30 10° NNW 17:46:53 78° W 17:51:12 10° S
Cosmos 2360 Rocket 4.4 17:45:56 10° WNW 17:49:45 18° NW 17:53:27 10° N
Cosmos 921 Rocket 2.9 17:45:30 10° NNW 17:49:40 81° W 17:49:40 81° W
NOSS 3-1 (A) 4.5 17:43:56 10° NW 17:50:22 37° NNE 17:51:17 36° NE
NOSS 0 Rocket 4.3 17:44:14 10° SW 17:50:23 62° NW 17:53:49 27° NNE
Cosmos 2369 Rocket 3.1 17:50:49 10° NNW 17:54:28 33° NNE 17:54:28 33° NNE
SL-16 R/B 2.3 17:52:01 10° S 17:57:02 57° SE 17:57:02 57° SE
Cosmos 1092 Rocket 4.4 17:52:14 10° SSW 17:58:30 63° WNW 18:04:43 10° N
Cosmos 1703 Rocket 4.0 17:55:44 10° SSW 18:00:09 60° WNW 18:01:05 48° NNW
IRS-1A Rocket 4.3 18:01:08 64° NE 18:01:08 64° NE 18:06:39 10° N
Ariane Rocket 4.0 18:03:29 33° N 18:03:29 33° N 18:06:18 10° N
Cosmos 2333 Rocket 3.8 17:58:27 10° WSW 18:03:25 29° NW 18:06:46 17° N
Cosmos 2237 Rocket 2.9 18:04:14 10° SW 18:09:47 52° NW 18:11:47 36° N
BREEZE-M R/B 4.3 18:06:54 10° W 18:09:34 32° W 18:09:34 32° W
SeaSat 1 3.9 18:28:08 30° NNW 18:28:08 30° NNW 18:30:35 10° NNW
Cosmos 2219 Rocket 4.2 18:21:56 10° W 18:26:16 22° NW 18:28:41 17° N
S3M 3.9 18:20:54 10° N 18:27:11 84° W 18:27:13 83° WSW
ATLAS 2AS CENTAUR R/B 4.1 18:21:26 10° WNW 18:28:32 33° NNW 18:30:47 28° NNE
COSMO-SKYMED 1 4.4 18:30:24 26° NW 18:31:10 28° WNW 18:34:51 10° WSW
Cosmos 1943 Rocket 3.3 18:36:10 10° NNW 18:39:24 36° NNW 18:39:24 36° NNW
USA 215 3.8 18:46:59 47° NNW 18:46:59 47° NNW 18:52:49 10° WNW
CZ-4 R/B 4.4 18:44:34 10° WSW 18:46:36 14° W 18:48:39 10° WNW
Lacrosse 5 rocket 4.2 18:51:18 10° W 18:52:16 16° WNW 18:52:16 16° WNW
